FW5863 Weather Reports


Display with metric or nautical units.
time (UTC)temp
F
wind
direction
speed
MPH
gust
MPH
rain 1hr
in
rain 24hr
in
rain mn
in
humidity
%
barometer
mb
20260508100458 37 50 0.0 0.0 0.00 0.00 0.00 90 1013.1
20260508095958 37 50 0.0 0.0 0.00 0.00 0.00 89 1013.0
20260508095458 37 50 0.0 0.0 0.00 0.00 0.00 89 1012.9
20260508094459 38 50 0.0 0.0 0.00 0.00 0.00 89 1012.9
20260508093958 38 50 0.0 0.0 0.00 0.00 0.00 89 1012.8
20260508093458 38 50 0.0 0.0 0.00 0.00 0.00 89 1012.8
20260508092959 39 50 0.0 1.0 0.00 0.00 0.00 89 1012.8
20260508092458 39 50 0.0 1.0 0.00 0.00 0.00 89 1012.7
20260508091958 39 50 0.0 2.0 0.00 0.00 0.00 89 1012.8
20260508091459 39 50 1.0 2.0 0.00 0.00 0.00 90 1012.7
20260508090958 39 50 1.0 2.0 0.00 0.00 0.00 90 1012.7
20260508090458 39 50 0.0 2.0 0.00 0.00 0.00 89 1012.7
20260508090005 39 50 1.0 2.0 0.00 0.00 0.00 89 1012.7
20260508085458 39 50 1.0 4.0 0.00 0.00 0.00 88 1012.6
20260508084958 39 50 1.0 4.0 0.00 0.00 0.00 88 1012.6
20260508084458 39 50 0.0 0.0 0.00 0.00 0.00 87 1012.5
20260508082958 41 50 0.0 0.0 0.00 0.00 0.00 85 1012.5
20260508081958 42 50 0.0 0.0 0.00 0.00 0.00 85 1012.5
20260508081458 42 50 0.0 0.0 0.00 0.00 0.00 85 1012.5
20260508080958 42 50 0.0 0.0 0.00 0.00 0.00 85 1012.5
20260508080458 42 50 0.0 0.0 0.00 0.00 0.00 85 1012.5
20260508075958 42 50 0.0 0.0 0.00 0.00 0.00 84 1012.4
20260508075458 42 50 0.0 0.0 0.00 0.00 0.00 84 1012.3
20260508074958 43 50 0.0 0.0 0.00 0.00 0.00 84 1012.3
20260508074459 43 50 0.0 0.0 0.00 0.00 0.00 84 1012.2
20260508073958 43 50 0.0 0.0 0.00 0.00 0.00 84 1012.2
20260508073458 43 50 0.0 3.0 0.00 0.00 0.00 84 1012.0
20260508072958 43 50 2.0 3.0 0.00 0.00 0.00 84 1012.1
20260508072458 43 50 2.0 4.0 0.00 0.00 0.00 84 1012.0
20260508071958 43 50 3.0 4.0 0.00 0.00 0.00 83 1012.0
20260508071458 43 50 3.0 4.0 0.00 0.00 0.00 83 1011.9
20260508070958 44 50 2.0 4.0 0.00 0.00 0.00 83 1011.9
20260508070457 44 50 2.0 4.0 0.00 0.00 0.00 83 1011.9
20260508070000 44 50 2.0 4.0 0.00 0.00 0.00 82 1011.8
20260508065459 44 50 2.0 4.0 0.00 0.00 0.00 81 1011.7
20260508064959 45 50 2.0 4.0 0.00 0.00 0.00 81 1011.8
20260508063959 45 50 2.0 4.0 0.00 0.00 0.00 80 1011.8
20260508063459 46 50 2.0 3.0 0.00 0.00 0.00 80 1011.8
20260508063000 46 50 2.0 4.0 0.00 0.00 0.00 79 1011.7
20260508062459 46 352 3.0 9.0 0.00 0.00 0.00 79 1011.7
20260508061959 46 2 5.0 10.0 0.00 0.00 0.00 78 1011.7
20260508061459 47 7 5.0 14.0 0.00 0.00 0.00 78 1011.8
20260508060959 47 1 8.0 15.0 0.00 0.00 0.00 78 1011.9
20260508060459 48 328 10.0 15.0 0.00 0.00 0.00 78 1011.8
20260508060001 48 329 9.0 16.0 0.00 0.00 0.00 77 1011.7
20260508055458 49 351 9.0 16.0 0.00 0.01 0.00 75 1011.6
20260508054958 50 345 9.0 15.0 0.00 0.01 0.00 71 1011.5
20260508054500 50 336 11.0 17.0 0.00 0.01 0.00 69 1011.8
20260508053959 50 336 12.0 19.0 0.00 0.01 0.00 68 1011.9
20260508053459 51 331 9.0 19.0 0.00 0.01 0.00 67 1011.8
20260508053000 51 288 7.0 15.0 0.00 0.01 0.00 67 1011.8
20260508052459 51 323 7.0 20.0 0.00 0.01 0.00 68 1011.8
20260508051959 51 325 7.0 20.0 0.00 0.01 0.00 67 1011.6
20260508051500 51 325 6.0 11.0 0.00 0.01 0.00 68 1011.4
20260508050959 51 330 4.0 8.0 0.00 0.01 0.00 68 1011.0
20260508050459 51 321 4.0 8.0 0.00 0.01 0.00 68 1010.6
20260508050000 51 348 4.0 8.0 0.00 0.01 0.00 66 1010.3
20260508045459 51 26 4.0 10.0 0.00 0.02 0.00 66 1010.2
20260508044959 52 21 3.0 10.0 0.00 0.02 0.00 65 1010.2
20260508044500 52 356 3.0 5.0 0.00 0.02 0.00 65 1010.1
20260508043959 52 359 4.0 10.0 0.00 0.02 0.00 65 1010.1
20260508043459 53 8 4.0 10.0 0.00 0.02 0.00 63 1010.0
20260508043000 53 17 3.0 5.0 0.00 0.02 0.00 63 1010.0
20260508042459 53 26 2.0 5.0 0.00 0.02 0.00 61 1010.0
20260508041459 53 300 4.0 8.0 0.00 0.02 0.00 61 1010.1
20260508040959 53 317 4.0 9.0 0.00 0.02 0.00 61 1010.0
20260508040004 53 338 7.0 20.0 0.00 0.02 0.00 61 1010.2
20260508035459 52 327 6.0 12.0 0.00 0.02 0.02 64 1010.0
20260508034959 51 294 4.0 9.0 0.00 0.02 0.02 67 1009.9
20260508034459 51 300 2.0 5.0 0.00 0.02 0.02 68 1009.5
20260508032959 51 290 0.0 0.0 0.00 0.02 0.02 72 1009.3
20260508032459 51 290 0.0 0.0 0.00 0.02 0.02 76 1009.3
20260508031459 52 290 0.0 0.0 0.00 0.02 0.02 75 1009.3
20260508030959 52 290 0.0 0.0 0.00 0.02 0.02 73 1009.3
20260508030458 52 290 0.0 0.0 0.00 0.02 0.02 67 1009.3
20260508025458 53 288 0.0 0.0 0.00 0.02 0.02 66 1009.4
20260508024959 53 287 0.0 0.0 0.00 0.02 0.02 64 1009.3
20260508024459 53 287 0.0 0.0 0.00 0.02 0.02 64 1009.2
20260508023958 53 287 0.0 0.0 0.00 0.02 0.02 64 1009.3
20260508023459 53 287 0.0 0.0 0.00 0.02 0.02 65 1009.4
20260508022959 53 287 0.0 0.0 0.00 0.02 0.02 67 1009.4
20260508022458 53 287 0.0 0.0 0.00 0.02 0.02 69 1009.4
20260508021959 53 287 0.0 0.0 0.00 0.02 0.02 62 1009.3
20260508021500 53 287 0.0 0.0 0.00 0.02 0.02 62 1009.2
20260508020959 53 287 0.0 0.0 0.00 0.02 0.02 62 1009.2
20260508020459 53 286 0.0 0.0 0.00 0.02 0.02 63 1009.2
20260508020000 53 286 0.0 0.0 0.00 0.02 0.02 63 1009.1
20260508015458 53 286 0.0 0.0 0.00 0.02 0.02 66 1009.2
20260508014958 53 286 0.0 0.0 0.00 0.02 0.02 65 1009.1
20260508013959 53 286 0.0 0.0 0.00 0.02 0.02 69 1009.0
20260508012458 53 286 0.0 0.0 0.00 0.02 0.02 63 1008.9
20260508011459 54 286 0.0 0.0 0.00 0.02 0.02 64 1008.9
20260508010000 55 286 0.0 0.0 0.00 0.02 0.02 62 1008.6
20260508005459 55 286 0.0 0.0 0.00 0.02 0.02 59 1008.6
20260508004459 55 286 0.0 0.0 0.00 0.02 0.02 61 1008.5
20260508003959 55 286 0.0 0.0 0.00 0.02 0.02 60 1008.5
20260508003458 55 286 0.0 0.0 0.00 0.02 0.02 55 1008.5
20260508002959 56 286 0.0 0.0 0.00 0.02 0.02 57 1008.4
20260508002458 56 286 0.0 0.0 0.00 0.02 0.02 54 1008.3
20260508001958 57 286 0.0 0.0 0.00 0.02 0.02 56 1008.4
20260508001500 57 286 0.0 2.0 0.00 0.02 0.02 53 1008.3
20260508000958 57 286 1.0 2.0 0.00 0.02 0.02 53 1008.2
20260508000458 57 286 2.0 3.0 0.00 0.02 0.02 48 1008.2
20260508000000 57 286 2.0 4.0 0.00 0.02 0.02 50 1008.2
20260507235459 58 286 2.0 4.0 0.00 0.13 0.02 49 1008.1
20260507234959 58 288 2.0 4.0 0.00 0.13 0.02 49 1008.2
20260507234459 58 288 2.0 4.0 0.00 0.13 0.02 49 1008.2
20260507233459 58 289 2.0 4.0 0.00 0.13 0.02 49 1008.0
20260507232959 59 289 2.0 4.0 0.00 0.13 0.02 45 1008.0
20260507232458 59 294 2.0 9.0 0.00 0.13 0.02 45 1007.9
20260507231958 59 295 3.0 9.0 0.00 0.13 0.02 46 1007.9
20260507231459 59 50 3.0 8.0 0.00 0.13 0.02 44 1007.8
20260507230959 60 50 3.0 8.0 0.00 0.13 0.02 44 1007.9
20260507230458 60 50 3.0 5.0 0.00 0.13 0.02 44 1007.9
20260507230000 60 50 3.0 6.0 0.00 0.13 0.02 44 1008.0
20260507225458 60 50 3.0 6.0 0.00 0.20 0.02 44 1007.9
20260507224958 60 50 3.0 6.0 0.00 0.20 0.02 43 1007.9
20260507224458 60 50 4.0 6.0 0.00 0.20 0.02 44 1007.8
20260507223957 60 50 4.0 6.0 0.00 0.20 0.02 45 1007.8
20260507223457 60 50 4.0 9.0 0.00 0.20 0.02 42 1007.9
20260507222958 61 50 4.0 9.0 0.00 0.20 0.02 41 1007.8
20260507222457 61 50 3.0 8.0 0.00 0.20 0.02 43 1007.9
20260507221958 61 50 4.0 8.0 0.00 0.20 0.02 41 1007.9
20260507220958 61 50 5.0 11.0 0.00 0.20 0.02 42 1007.9
20260507220457 61 50 6.0 11.0 0.00 0.20 0.02 43 1007.9
20260507215958 62 50 7.0 15.0 0.00 0.25 0.02 41 1007.9
20260507215457 62 50 5.0 15.0 0.00 0.25 0.02 42 1008.1
20260507214458 61 50 4.0 9.0 0.00 0.25 0.02 42 1008.1
20260507212958 62 50 9.0 18.0 0.00 0.25 0.02 39 1008.0
20260507211958 61 50 6.0 16.0 0.00 0.25 0.02 43 1008.0
20260507211458 60 50 4.0 10.0 0.00 0.25 0.02 45 1008.0
20260507210958 60 50 4.0 12.0 0.00 0.25 0.02 45 1007.9
20260507210500 60 50 7.0 12.0 0.00 0.25 0.02 42 1008.0
20260507205959 60 50 8.0 14.0 0.00 0.27 0.02 41 1008.0
20260507205458 62 50 8.0 15.0 0.00 0.27 0.02 40 1007.9
20260507204958 62 50 7.0 15.0 0.00 0.27 0.02 43 1007.9
20260507204458 62 50 8.0 16.0 0.00 0.27 0.02 43 1007.9
20260507203957 62 50 9.0 16.0 0.00 0.27 0.02 42 1007.9
20260507203458 62 50 9.0 15.0 0.00 0.27 0.02 41 1007.9
20260507202958 62 50 9.0 16.0 0.00 0.27 0.02 41 1007.9
20260507202458 62 50 9.0 16.0 0.00 0.27 0.02 44 1007.8
20260507201958 62 50 8.0 13.0 0.00 0.27 0.02 41 1007.9
20260507201501 62 50 8.0 14.0 0.00 0.27 0.02 43 1007.9
20260507200457 62 50 9.0 15.0 0.00 0.27 0.02 43 1008.0
20260507195959 62 50 8.0 15.0 0.00 0.27 0.02 41 1008.0
20260507195458 62 50 7.0 12.0 0.00 0.27 0.02 43 1008.1
20260507194958 62 50 6.0 11.0 0.00 0.27 0.02 45 1008.2
20260507194458 62 50 7.0 12.0 0.00 0.27 0.02 44 1008.1
20260507193958 62 50 8.0 17.0 0.00 0.27 0.02 43 1008.2
20260507193458 62 50 8.0 17.0 0.00 0.27 0.02 42 1008.3
20260507192958 62 50 5.0 11.0 0.00 0.27 0.02 45 1008.3
20260507192458 62 50 6.0 14.0 0.00 0.27 0.02 44 1008.4
20260507191458 62 50 6.0 14.0 0.00 0.27 0.02 42 1008.4
20260507190957 62 50 7.0 12.0 0.00 0.27 0.02 46 1008.5
20260507190458 62 50 7.0 12.0 0.00 0.27 0.02 42 1008.5
20260507185958 62 50 6.0 12.0 0.00 0.27 0.02 43 1008.6
20260507185458 62 50 6.0 11.0 0.00 0.27 0.02 42 1008.6
20260507184458 62 50 6.0 13.0 0.00 0.27 0.02 45 1008.7
20260507183957 61 50 8.0 17.0 0.00 0.27 0.02 46 1008.8
20260507183457 61 50 10.0 17.0 0.00 0.27 0.02 44 1008.9
20260507182958 61 50 9.0 15.0 0.00 0.27 0.02 43 1008.9
20260507182458 61 50 6.0 14.0 0.00 0.27 0.02 43 1009.0
20260507181958 61 50 6.0 13.0 0.00 0.27 0.02 47 1009.1
20260507180957 61 50 7.0 14.0 0.00 0.27 0.02 45 1009.1
20260507180457 60 50 6.0 14.0 0.00 0.27 0.02 43 1009.1
20260507175958 60 50 5.0 12.0 0.00 0.27 0.02 43 1009.2
20260507175458 60 50 7.0 16.0 0.00 0.27 0.02 43 1009.3
20260507174958 60 50 8.0 16.0 0.00 0.27 0.02 48 1009.3
20260507174458 60 50 7.0 16.0 0.00 0.27 0.02 44 1009.3
20260507173958 60 50 6.0 14.0 0.00 0.27 0.02 45 1009.5
20260507173458 60 50 7.0 13.0 0.00 0.27 0.02 45 1009.6
20260507172958 60 50 6.0 13.0 0.00 0.27 0.02 46 1009.7
20260507172458 59 50 6.0 12.0 0.00 0.27 0.02 48 1009.7
20260507171957 59 50 5.0 12.0 0.00 0.27 0.02 47 1009.8
20260507171458 59 50 4.0 11.0 0.00 0.27 0.02 50 1009.9
20260507170958 59 50 6.0 14.0 0.00 0.27 0.02 48 1010.0
20260507170457 59 50 4.0 14.0 0.00 0.27 0.02 49 1010.1
20260507165958 58 50 4.0 11.0 0.00 0.27 0.02 48 1010.1
20260507164958 58 50 7.0 14.0 0.00 0.27 0.02 45 1010.3
20260507164458 58 50 6.0 14.0 0.00 0.27 0.02 46 1010.5
20260507163957 58 50 6.0 13.0 0.00 0.27 0.02 43 1010.5
20260507163457 58 50 6.0 13.0 0.00 0.27 0.02 48 1010.6
20260507162958 58 50 7.0 15.0 0.00 0.27 0.02 50 1010.5
20260507162459 58 50 7.0 15.0 0.00 0.27 0.02 43 1010.5
20260507161958 58 50 7.0 13.0 0.00 0.27 0.02 47 1010.6
20260507161458 58 50 8.0 14.0 0.00 0.27 0.02 49 1010.6
20260507160957 57 50 8.0 14.0 0.00 0.27 0.02 52 1010.5
20260507160457 57 50 6.0 13.0 0.00 0.27 0.02 48 1010.7
20260507155457 57 50 5.0 13.0 0.00 0.27 0.02 52 1010.8
20260507154957 56 50 6.0 13.0 0.00 0.27 0.02 53 1011.0
20260507154458 56 50 5.0 12.0 0.00 0.27 0.02 50 1011.1
20260507153958 56 50 7.0 18.0 0.00 0.27 0.02 49 1011.2
20260507153457 56 50 7.0 18.0 0.00 0.27 0.02 51 1011.3
20260507152958 56 50 5.0 13.0 0.00 0.27 0.02 50 1011.3
20260507152458 56 50 4.0 11.0 0.00 0.27 0.02 50 1011.4
20260507151957 56 50 2.0 9.0 0.00 0.27 0.02 54 1011.5
20260507151458 56 50 4.0 12.0 0.00 0.27 0.02 53 1011.5
20260507150958 55 50 7.0 14.0 0.00 0.27 0.02 52 1011.6
20260507150457 55 50 7.0 14.0 0.00 0.27 0.02 54 1011.6
20260507145958 55 50 6.0 13.0 0.00 0.27 0.02 55 1011.6
20260507145457 55 50 5.0 12.0 0.00 0.27 0.02 53 1011.7
20260507144458 55 50 4.0 12.0 0.00 0.27 0.02 57 1012.0
20260507143957 55 50 4.0 9.0 0.00 0.27 0.02 55 1012.0
20260507142958 54 50 5.0 12.0 0.00 0.27 0.02 56 1012.1
20260507142457 54 50 5.0 10.0 0.00 0.27 0.02 58 1012.1
20260507141458 53 50 4.0 11.0 0.00 0.27 0.02 59 1012.2
20260507140457 53 50 7.0 16.0 0.00 0.27 0.02 61 1012.3
20260507135958 53 50 6.0 16.0 0.00 0.27 0.02 58 1012.3
20260507135457 53 50 6.0 12.0 0.00 0.27 0.02 62 1012.4
20260507134957 52 50 7.0 12.0 0.00 0.27 0.02 61 1012.4
20260507134458 52 50 8.0 12.0 0.00 0.27 0.02 61 1012.5
20260507133957 52 50 8.0 18.0 0.00 0.27 0.02 61 1012.4
20260507133457 52 320 7.0 18.0 0.00 0.27 0.02 61 1012.5
20260507132958 52 50 4.0 14.0 0.00 0.27 0.02 61 1012.4
20260507132458 52 50 5.0 10.0 0.00 0.27 0.02 66 1012.4
20260507131458 51 50 6.0 11.0 0.00 0.27 0.02 66 1012.3
20260507130458 51 50 5.0 12.0 0.00 0.27 0.02 65 1012.3
20260507125958 51 9 5.0 9.0 0.00 0.27 0.02 67 1012.4
20260507125457 51 332 5.0 11.0 0.00 0.27 0.02 68 1012.4
20260507124957 51 324 5.0 11.0 0.00 0.27 0.02 70 1012.2
20260507124458 50 315 6.0 11.0 0.00 0.27 0.02 67 1012.2
20260507123957 50 342 6.0 11.0 0.00 0.27 0.02 68 1012.3
20260507123457 50 310 5.0 9.0 0.00 0.27 0.02 68 1012.3
20260507122958 50 6 5.0 10.0 0.00 0.27 0.02 70 1012.3
20260507122457 50 320 5.0 11.0 0.00 0.27 0.02 72 1012.3
20260507121957 50 5 6.0 11.0 0.00 0.27 0.02 71 1012.2
20260507120957 49 13 7.0 14.0 0.00 0.27 0.02 72 1012.1
20260507120457 49 26 8.0 14.0 0.00 0.27 0.02 71 1012.0
20260507115958 49 13 8.0 14.0 0.00 0.27 0.02 72 1012.1
20260507115457 49 356 7.0 12.0 0.00 0.27 0.02 71 1012.1
20260507114957 49 23 7.0 12.0 0.00 0.27 0.02 72 1012.2
20260507114458 49 12 6.0 13.0 0.00 0.27 0.02 73 1012.2
20260507113957 49 24 6.0 13.0 0.00 0.27 0.02 74 1012.2
20260507113457 0 0.0 0.0 0.00 0.27 0.02 1012.2
20260507112958 0 0.0 0.0 0.00 0.27 0.02 1012.1
20260507112457 0 0.0 0.0 0.00 0.27 0.02 1012.1
20260507111957 0 0.0 0.0 0.00 0.27 0.02 1012.0
20260507111459 0 0.0 0.0 0.00 0.27 0.02 1012.0
20260507110957 0 0.0 0.0 0.00 0.27 0.02 1011.9
20260507110457 0 0.0 0.0 0.00 0.27 0.02 1011.8
20260507105958 0 0.0 0.0 0.00 0.27 0.02 1011.8
20260507105457 0 0.0 0.0 0.00 0.27 0.02 1011.7
20260507104957 0 0.0 0.0 0.00 0.27 0.02 1011.6
20260507104458 0 0.0 0.0 0.00 0.27 0.02 1011.5
20260507103957 0 0.0 0.0 0.00 0.27 0.02 1011.3
20260507103457 0 0.0 0.0 0.00 0.27 0.02 1011.2
20260507102958 0 0.0 0.0 0.00 0.27 0.02 1011.0